Main page
Satellite images Climate Cyclones Lightning AirportsFAQ Languages Contact Newsletter About
Weather : Europe Africa North America South America Asia Australia-Oceania Others

hat-yai-th, Langkawi, Langkawi International Airport

latitude: , longitude: Malaysia, elevation: 06-20N m


METAR: WMKL 220200Z VRB02KT 9999 FEW022 BKN280 30/26 Q1013